Voltar ao catálogo

STARLINK-35121

AtivoComunicaçõesVLEO
NORAD 65737·PAYLOAD·🇺🇸 United States

Lançado Sep 25, 2025 de Cape Canaveral Space Force Station

Loading…

Próximas Passagens (próximas 24 horas)

TLE

AtualizadoSource: CelesTrak SupGP

Época: Sep 14, 2026, 21:39 UTC

1 65737C 25216D   26257.90256944 -.00049639  00000+0 -14660-2 0  2573
2 65737  53.1578 171.7010 0001330  91.5516 339.5508 15.34428830    12

Acompanhe STARLINK-35121 em tempo real com AllMySat

Download on the App Store